Flag for Switzerland Weather past 2 weeks in Riehen, Basel-Stadt, Switzerland

Now
36 °F

Fog.


Feels Like: 36 °F
Forecast: 35 / 60 °F
Wind: 2 mph from Southwest

Location: Bale-Mulhouse

Current Time: Oct 24, 2014 at 10:08:56 AM

Latest Report: Oct 24, 2014 at 9:00 AM


Visibility: 0 mi

Pressure: 30.25 "Hg

Humidity: 100%

Dew point: 36 °F

Location of RiehenLocation

Historic Weather in Riehen — Graph

°F

Riehen temperature yesterday

Maximum temperature yesterday: 58 °F (at 4:00 PM)
Minimum temperature yesterday: 44 °F (at 11:00 PM)
Average temperature yesterday: 49 °F

Past Weeks' High & Low Weather Summary

 TemperatureHumidityPressure
High76 °F (Oct 19, 4:00 PM)99% (Oct 12, 7:00 AM)30.33 "Hg (Oct 12, 7:00 AM)
Low33 °F (Oct 24, 8:00 AM)44% (Oct 23, 4:00 PM)29.74 "Hg (Oct 15, 5:00 PM)
Average57 °F86%30.00 "Hg
* Reported Oct 9 8:00 AM — Oct 24 8:00 AM, Riehen, Weather by CustomWeather, © 2014

Note: Actual official high and low records may vary slightly from our data, if they occured in-between our weather recording intervals... More about our weather records

Advertising

Riehen weather history for previous 24 hours

 ConditionsComfort  
Time TempWeatherWind HumidityBarometerVisibility
8:00 AM
Oct 24
33 °FFog.No wind97%30.26 "Hg1 mi
7:00 AM34 °FFog.3 mph98%30.25 "Hg0 mi
6:00 AM34 °FFog.1 mph97%30.25 "Hg2 mi
5:00 AM34 °FFog.No wind96%30.25 "Hg2 mi
4:00 AM35 °FChilly.1 mph96%30.26 "Hg2 mi
3:00 AM36 °FChilly.3 mph96%30.27 "Hg3 mi
2:00 AM38 °FChilly.1 mph96%30.27 "Hg5 mi
1:00 AM40 °FChilly.3 mph96%30.28 "Hg6 mi
12:00 AM41 °FPassing clouds.3 mph92%30.27 "Hg10 mi
11:00 PM
Oct 23
44 °FPassing clouds.3 mph84%30.28 "Hg11 mi
10:00 PM46 °FPassing clouds.No wind88%30.27 "Hg11 mi
9:00 PM46 °FOvercast.No wind86%30.27 "Hg12 mi
8:00 PM47 °FOvercast.No wind80%30.27 "Hg12 mi
7:00 PM51 °FPassing clouds.3 mph53%30.26 "Hg19 mi
6:00 PM53 °FPassing clouds.3 mph50%30.25 "Hg19 mi
5:00 PM56 °FScattered clouds.1 mph45%30.24 "Hg25 mi
4:00 PM58 °FPartly sunny.1 mph44%30.26 "Hg25 mi
3:00 PM57 °FPartly sunny.2 mph51%30.27 "Hg25 mi
2:00 PM53 °FPartly sunny.3 mph57%30.30 "Hg12 mi
1:00 PM53 °FPartly sunny.2 mph64%30.31 "Hg12 mi
12:00 PM53 °FPartly sunny.3 mph62%30.33 "Hg12 mi
11:00 AM51 °FPartly sunny.5 mph72%30.33 "Hg9 mi
10:00 AM47 °FPartly sunny.3 mph86%30.33 "Hg9 mi
Weather by CustomWeather, © 2014

See weather overviewHow to use our weather pages